Flag for Namibia Weather past 2 weeks in Swakopmund, Namibia

Now
57 °F

Cool.


Feels Like: 57 °F
Forecast: 64 / 75 °F
Wind: 1 mph from East

Location: Walvis Bay

Current Time: Apr 25, 2015 at 3:55:59 AM

Latest Report: Apr 25, 2015 at 3:00 AM


Visibility: N/A

Pressure: 30.04 "Hg

Humidity: 82%

Dew point: 52 °F

Location of SwakopmundLocation

Historic Weather in Swakopmund — Graph

°F

Swakopmund temperature yesterday

Maximum temperature yesterday: 86 °F (at 2:00 PM)
Minimum temperature yesterday: 55 °F (at 6:00 AM)
Average temperature yesterday: 67 °F

Past Weeks' High & Low Weather Summary

 TemperatureHumidityPressure
High86 °F (Apr 24, 2:00 PM)100% (Apr 21, 3:00 AM)30.07 "Hg (Apr 21, 3:00 AM)
Low48 °F (Apr 18, 12:00 AM)22% (Apr 24, 4:00 PM)29.89 "Hg (Apr 15, 3:00 PM)
Average61 °F75%30.00 "Hg
* Reported Apr 10 2:00 AM — Apr 25 2:00 AM, Swakopmund, Weather by CustomWeather, © 2015

Note: Actual official high and low records may vary slightly from our data, if they occured in-between our weather recording intervals... More about our weather records

Advertising

Swakopmund weather history for previous 24 hours

 ConditionsComfort  
Time TempWeatherWind HumidityBarometerVisibility
2:00 AM
Sat, Apr 25
57 °FCool.1 mph82%30.04 "HgN/A
1:00 AM57 °FCool.6 mph88%30.04 "HgN/A
12:00 AM59 °FCool.7 mph82%30.04 "HgN/A
11:00 PM
Fri, Apr 24
59 °FCool.9 mph82%30.04 "HgN/A
10:00 PM63 °FMild.8 mph73%30.04 "HgN/A
9:00 PM64 °FMild.7 mph64%30.01 "HgN/A
8:00 PM64 °FMild.1 mph68%29.98 "HgN/A
7:00 PM68 °FClear.5 mph56%29.98 "Hg10 mi
6:00 PM73 °FMild.6 mph44%29.98 "HgN/A
5:00 PM81 °FClear.7 mph32%29.95 "Hg10 mi
4:00 PM86 °FSunny.10 mph22%29.95 "Hg10 mi
3:00 PM86 °FSunny.9 mph24%29.95 "Hg10 mi
2:00 PM86 °FSunny.9 mph25%29.98 "Hg10 mi
12:00 PM77 °FWarm.6 mph44%30.01 "HgN/A
11:00 AM75 °FScattered clouds.6 mph44%30.04 "HgN/A
10:00 AM72 °FPartly sunny.6 mph53%30.04 "HgN/A
9:00 AM66 °FOvercast.6 mph60%30.04 "HgN/A
8:00 AM59 °FOvercast.7 mph77%30.01 "HgN/A
7:00 AM57 °FOvercast.3 mph82%29.98 "HgN/A
6:00 AM55 °FSunny.3 mph82%29.95 "Hg10 mi
5:00 AM57 °FClear.2 mph82%29.95 "Hg10 mi
4:00 AM57 °FCool.5 mph82%29.95 "HgN/A
3:00 AM57 °FCool.3 mph82%29.95 "HgN/A
Weather by CustomWeather, © 2015

See weather overviewHow to use our weather pages